• In Czech Republic
  • List of Countries
  • For 7 days
  • Water Temperature
  • Satellite Maps
  • Weather Map
  • Weather Widgets
  • user-avatar
    Login

    Hourly Weather Borovec

    Today, 17 August, Friday

    Time Temperature Precipitation Wind Pressure Humidity
    00:00 +20°C° 0 mm 1 mps 710 mmHg 60%
    01:00 +20°C° 0 mm 1 mps 710 mmHg 61%
    02:00 +20°C° 0 mm 1 mps 710 mmHg 65%
    03:00 +20°C° 0 mm 1 mps 710 mmHg 67%
    04:00 +20°C° 0 mm 1 mps 710 mmHg 69%
    05:00 +19°C° 0 mm 1 mps 710 mmHg 70%
    06:00 +21°C° 0 mm 1 mps 711 mmHg 65%
    07:00 +22°C° 0 mm 1 mps 711 mmHg 60%
    08:00 +24°C° 0 mm 1 mps 711 mmHg 55%
    09:00 +26°C° 0 mm 1 mps 711 mmHg 49%
    10:00 +28°C° 0 mm 2 mps 711 mmHg 42%
    11:00 +29°C° 0 mm 2 mps 711 mmHg 36%
    12:00 +30°C° 0 mm 3 mps 711 mmHg 34%
    13:00 +30°C° 0 mm 3 mps 711 mmHg 33%
    14:00 +31°C° 0 mm 3 mps 711 mmHg 32%
    15:00 +31°C° 0 mm 3 mps 711 mmHg 33%
    16:00 +30°C° 0 mm 3 mps 711 mmHg 35%
    17:00 +30°C° 0 mm 3 mps 710 mmHg 36%
    18:00 +27°C° 0 mm 2 mps 710 mmHg 42%
    19:00 +25°C° 0 mm 2 mps 710 mmHg 49%
    20:00 +23°C° 0 mm 1 mps 710 mmHg 55%
    21:00 +22°C° 0 mm 1 mps 710 mmHg 58%
    22:00 +22°C° 0 mm 1 mps 710 mmHg 60%
    23:00 +21°C° 0 mm 1 mps 711 mmHg 63%

    Tomorrow, 18 August, Saturday

    Time Temperature Precipitation Wind Pressure Humidity
    00:00 +21°C° 0 mm 1 mps 711 mmHg 64%
    01:00 +20°C° 0 mm 1 mps 711 mmHg 65%
    02:00 +20°C° 0 mm 1 mps 711 mmHg 66%
    03:00 +20°C° 0 mm 1 mps 711 mmHg 67%
    04:00 +19°C° 0 mm 1 mps 711 mmHg 68%
    05:00 +19°C° 0 mm 1 mps 711 mmHg 69%
    06:00 +21°C° 0 mm 1 mps 711 mmHg 64%
    07:00 +21°C° 0 mm 0 mps 712 mmHg 58%
    08:00 +23°C° 0 mm 0 mps 712 mmHg 52%
    09:00 +27°C° 0 mm 1 mps 712 mmHg 47%
    10:00 +29°C° 0 mm 2 mps 713 mmHg 41%
    11:00 +30°C° 0 mm 2 mps 713 mmHg 35%
    12:00 +31°C° 0 mm 3 mps 713 mmHg 34%
    13:00 +31°C° 0 mm 3 mps 712 mmHg 33%
    14:00 +33°C° 0 mm 3 mps 712 mmHg 32%
    15:00 +31°C° 0 mm 3 mps 712 mmHg 33%
    16:00 +31°C° 0 mm 3 mps 712 mmHg 34%
    17:00 +30°C° 0 mm 3 mps 711 mmHg 36%
    18:00 +28°C° 0 mm 2 mps 711 mmHg 42%
    19:00 +26°C° 0 mm 2 mps 711 mmHg 47%
    20:00 +24°C° 0 mm 1 mps 711 mmHg 53%
    21:00 +23°C° 0 mm 1 mps 711 mmHg 56%
    22:00 +22°C° 0 mm 1 mps 712 mmHg 58%
    23:00 +21°C° 0 mm 1 mps 712 mmHg 60%

    Day after tomorrow, 19 August, Sunday

    Time Temperature Precipitation Wind Pressure Humidity
    00:00 +21°C° 0 mm 1 mps 712 mmHg 62%
    01:00 +21°C° 0 mm 1 mps 712 mmHg 63%
    02:00 +20°C° 0 mm 1 mps 712 mmHg 65%
    03:00 +20°C° 0 mm 1 mps 712 mmHg 66%
    04:00 +20°C° 0 mm 1 mps 712 mmHg 67%
    05:00 +19°C° 0 mm 1 mps 712 mmHg 68%
    06:00 +21°C° 0 mm 1 mps 712 mmHg 62%
    07:00 +23°C° 0 mm 1 mps 712 mmHg 57%
    08:00 +23°C° 0 mm 0 mps 713 mmHg 51%
    09:00 +27°C° 0 mm 1 mps 713 mmHg 45%
    10:00 +29°C° 0 mm 2 mps 713 mmHg 39%
    11:00 +30°C° 0 mm 2 mps 713 mmHg 34%
    12:00 +31°C° 0 mm 2 mps 713 mmHg 32%
    13:00 +31°C° 0 mm 3 mps 712 mmHg 31%
    14:00 +33°C° 0 mm 3 mps 712 mmHg 29%
    15:00 +31°C° 0 mm 3 mps 712 mmHg 31%
    16:00 +31°C° 0 mm 3 mps 711 mmHg 32%
    17:00 +30°C° 0 mm 3 mps 711 mmHg 33%
    18:00 +28°C° 0 mm 2 mps 711 mmHg 38%
    19:00 +26°C° 0 mm 2 mps 711 mmHg 44%
    20:00 +24°C° 0 mm 1 mps 711 mmHg 49%
    21:00 +23°C° 0 mm 1 mps 711 mmHg 51%
    22:00 +22°C° 0 mm 1 mps 711 mmHg 52%
    23:00 +21°C° 0 mm 1 mps 711 mmHg 54%

    20 August, Monday

    Time Temperature Precipitation Wind Pressure Humidity
    00:00 +21°C° 0 mm 1 mps 711 mmHg 55%
    01:00 +20°C° 0 mm 1 mps 711 mmHg 57%
    02:00 +20°C° 0 mm 1 mps 711 mmHg 58%
    03:00 +20°C° 0 mm 1 mps 711 mmHg 60%
    04:00 +19°C° 0 mm 1 mps 711 mmHg 62%
    05:00 +19°C° 0 mm 1 mps 710 mmHg 63%
    06:00 +21°C° 0 mm 1 mps 711 mmHg 59%
    07:00 +21°C° 0 mm 0 mps 711 mmHg 54%
    08:00 +23°C° 0 mm 0 mps 712 mmHg 50%
    09:00 +26°C° 0 mm 1 mps 712 mmHg 45%
    10:00 +28°C° 0 mm 2 mps 712 mmHg 41%
    11:00 +30°C° 0 mm 2 mps 712 mmHg 37%
    12:00 +30°C° 0 mm 3 mps 712 mmHg 36%
    13:00 +30°C° 0 mm 3 mps 712 mmHg 36%
    14:00 +31°C° 0 mm 3 mps 711 mmHg 35%
    15:00 +31°C° 0 mm 3 mps 711 mmHg 36%
    16:00 +30°C° 0 mm 3 mps 711 mmHg 37%
    17:00 +30°C° 0 mm 3 mps 711 mmHg 38%
    18:00 +28°C° 0 mm 3 mps 711 mmHg 43%
    19:00 +25°C° 0 mm 2 mps 711 mmHg 49%
    20:00 +23°C° 0 mm 2 mps 710 mmHg 55%
    21:00 +22°C° 0 mm 1 mps 711 mmHg 57%
    22:00 +21°C° 0 mm 1 mps 711 mmHg 58%
    23:00 +21°C° 0 mm 1 mps 711 mmHg 60%

    21 August, Tuesday

    Time Temperature Precipitation Wind Pressure Humidity
    00:00 +20°C° 0 mm 1 mps 711 mmHg 62%
    01:00 +20°C° 0 mm 1 mps 711 mmHg 63%
    02:00 +19°C° 0 mm 1 mps 711 mmHg 64%
    03:00 +19°C° 0 mm 1 mps 711 mmHg 65%
    04:00 +18°C° 0 mm 1 mps 711 mmHg 66%
    05:00 +18°C° 0 mm 1 mps 711 mmHg 67%
    06:00 +20°C° 0 mm 1 mps 712 mmHg 62%
    07:00 +22°C° 0 mm 1 mps 712 mmHg 57%
    08:00 +24°C° 0 mm 1 mps 713 mmHg 52%
    09:00 +25°C° 0 mm 2 mps 713 mmHg 45%
    10:00 +27°C° 0 mm 3 mps 713 mmHg 39%
    11:00 +29°C° 0 mm 4 mps 713 mmHg 33%
    12:00 +29°C° 0 mm 4 mps 713 mmHg 30%
    13:00 +30°C° 0 mm 4 mps 713 mmHg 26%
    14:00 +32°C° 0 mm 4 mps 712 mmHg 23%
    15:00 +30°C° 0 mm 4 mps 712 mmHg 23%
    16:00 +30°C° 0 mm 4 mps 712 mmHg 24%
    17:00 +29°C° 0 mm 4 mps 712 mmHg 24%
    18:00 +26°C° 0 mm 3 mps 712 mmHg 30%
    19:00 +24°C° 0 mm 2 mps 712 mmHg 35%
    20:00 +20°C° 0 mm 2 mps 712 mmHg 40%
    21:00 +19°C° 0 mm 2 mps 712 mmHg 42%
    22:00 +20°C° 0 mm 1 mps 712 mmHg 43%
    23:00 +19°C° 0 mm 1 mps 712 mmHg 45%

    22 August, Wednesday

    Time Temperature Precipitation Wind Pressure Humidity
    00:00 +18°C° 0 mm 1 mps 712 mmHg 46%
    01:00 +18°C° 0 mm 1 mps 712 mmHg 47%
    02:00 +18°C° 0 mm 1 mps 712 mmHg 48%
    03:00 +16°C° 0 mm 1 mps 712 mmHg 49%
    04:00 +16°C° 0 mm 1 mps 712 mmHg 51%
    05:00 +16°C° 0 mm 1 mps 712 mmHg 53%
    06:00 +19°C° 0 mm 1 mps 712 mmHg 49%
    07:00 +21°C° 0 mm 1 mps 713 mmHg 45%
    08:00 +23°C° 0 mm 1 mps 713 mmHg 42%
    09:00 +25°C° 0 mm 1 mps 713 mmHg 36%
    10:00 +27°C° 0 mm 2 mps 713 mmHg 31%
    11:00 +29°C° 0 mm 3 mps 713 mmHg 25%
    12:00 +30°C° 0 mm 3 mps 713 mmHg 24%
    13:00 +30°C° 0 mm 3 mps 712 mmHg 23%
    14:00 +31°C° 0 mm 3 mps 712 mmHg 21%
    15:00 +31°C° 0 mm 3 mps 712 mmHg 22%
    16:00 +30°C° 0 mm 3 mps 712 mmHg 24%
    17:00 +30°C° 0 mm 3 mps 711 mmHg 25%
    18:00 +27°C° 0 mm 2 mps 711 mmHg 30%
    19:00 +24°C° 0 mm 2 mps 711 mmHg 34%
    20:00 +22°C° 0 mm 1 mps 711 mmHg 39%
    21:00 +21°C° 0 mm 1 mps 711 mmHg 41%
    22:00 +20°C° 0 mm 1 mps 711 mmHg 42%
    23:00 +19°C° 0 mm 1 mps 711 mmHg 44%
    Show more